Regional Weather Roundup
Issued by NWS

Home | Current Version | Previous Version | Graphics & Text | Print | Product List | Glossary On
Versions: 1 2 3 4 5 6 7 8 9 10 11 12 13 14 15 16 17 18 19 20 21 22 23 24 25 26 27
000
ASUS45 KBOI 192310
RWRID
WEATHER ROUNDUP FOR IDAHO
NATIONAL WEATHER SERVICE BOISE ID
500 PM MDT SAT APR 19 2014

NOTE: "FAIR" INDICATES FEW OR NO CLOUDS BELOW 12000 FEET
WITH NO SIGNIFICANT WEATHER AND/OR OBSTRUCTIONS TO VISIBILITY

IDZ012-014-200000-
SOUTHWEST IDAHO


CITY           SKY/WX    TMP DP  RH WIND       PRES   REMARKS
BOISE          SUNNY     75  22  13 SE12      29.84F
CALDWELL       SUNNY     75  28  17 E3        29.84F
MOUNTAIN HOME  SUNNY     76  20  12 VRB2      29.84F
$$

IDZ016-017-200000-
SOUTHCENTRAL IDAHO


CITY           SKY/WX    TMP DP  RH WIND       PRES   REMARKS
BURLEY         SUNNY     70  26  19 VRB5      29.91F
JEROME         MOSUNNY   71  26  18 VRB3      29.91F
TWIN FALLS     MOSUNNY   72  27  18 NE8       29.91F
$$

IDZ019>023-200000-
SOUTHEAST IDAHO


CITY           SKY/WX    TMP DP  RH WIND       PRES   REMARKS
IDAHO FALLS    SUNNY     66  19  16 SW16G22   29.96F
POCATELLO      MOSUNNY   69  20  15 W12G25    29.96F
REXBURG        SUNNY     64  17  16 SW15G25   29.96F
$$

IDZ006-010-011-018-031-032-200000-
CENTRAL IDAHO MOUNTAINS


CITY           SKY/WX    TMP DP  RH WIND       PRES   REMARKS
MCCALL         CLOUDY    59  18  20 S12       29.91F
HAILEY         MOSUNNY   64  16  15 CALM      29.97F
STANLEY          N/A     56   8  14 VRB5      29.99F
SALMON         SUNNY     68  18  14 NW7       29.81F
CHALLIS        MOSUNNY   66   5   9 S12       29.89F
$$

IDZ002-004-006-007-026-200000-
NORTHERN IDAHO


CITY           SKY/WX    TMP DP  RH WIND       PRES   REMARKS
LEWISTON       MOSUNNY   68  22  17 NW15      29.83S
LOWELL           N/A     67  45  45 CALM      29.77F
COEUR D`ALENE  PTSUNNY   63  36  36 SW16G22   29.83S
MULLAN PASS    PTSUNNY   47  18  31 SW8       29.89R
$$



USA.gov is the U.S. government's official web portal to all federal, state and local government web resources and services.